Location: downtown San Diego
(32.7310°N, 117.1990°W)
Time: 12:37:30
(UTC-08:00)

Cosmos 1844 - Pass Details

Date: 14 June 2018
Orbit: 824 x 866 km, 70.9° (Epoch: 18 November)

Event Time Altitude Azimuth Distance (km) Brightness Sun altitude
Exits shadow 22:46:24 36° 68° (ENE) 1,313 4.5 -26.8°
Drops below altitude 10° 22:50:18 10° 35° (NE) 2,486 6.4 -27.2°
Sets 22:52:52 0° 29° (NNE) 3,431 7.3 -27.5°
